Radiation Dose measured at exhaust stack monitor of Miscellaneous Solid Waste Incinerator Building/Incinerator raregas monitor
Date,Time,Incinerator Gas Monitor(cps),Wind Direction,Wind Velocity(m/s)
2022/05/06,00:00,1.5,south,4.2
2022/05/06,00:10,1.4,south,4.7
2022/05/06,00:20,1.5,south,6.1
2022/05/06,00:30,1.5,south,7.6
2022/05/06,00:40,1.4,south,6.9
2022/05/06,00:50,1.5,south,6.0
2022/05/06,01:00,1.5,south,5.1
2022/05/06,01:10,1.4,south-southwest,4.1
2022/05/06,01:20,1.4,southwest,3.2
2022/05/06,01:30,1.4,west-southwest,3.7
2022/05/06,01:40,1.4,southwest,2.5
2022/05/06,01:50,1.5,southwest,2.6
2022/05/06,02:00,1.5,south-southwest,3.0
2022/05/06,02:10,1.5,south,2.3
2022/05/06,02:20,1.4,south,1.9
2022/05/06,02:30,1.5,south,1.2
2022/05/06,02:40,1.4,south-southeast,1.7
2022/05/06,02:50,1.5,south-southeast,2.3
2022/05/06,03:00,1.4,south-southeast,2.3
2022/05/06,03:10,1.4,south,1.4
2022/05/06,03:20,1.4,south,1.7
2022/05/06,03:30,1.5,south,1.4
2022/05/06,03:40,1.5,south,1.2
2022/05/06,03:50,1.5,south-southwest,1.5
2022/05/06,04:00,1.5,south,0.6
2022/05/06,04:10,1.4,-,CALM
2022/05/06,04:20,1.5,-,CALM
2022/05/06,04:30,1.5,south-southwest,0.9
2022/05/06,04:40,1.5,-,CALM
2022/05/06,04:50,1.5,south-southeast,0.8
2022/05/06,05:00,1.4,south-southeast,0.9
2022/05/06,05:10,1.5,south-southeast,2.0
2022/05/06,05:20,1.5,southeast,2.0
2022/05/06,05:30,1.5,southeast,2.8
2022/05/06,05:40,1.5,south-southeast,2.8
2022/05/06,05:50,1.5,south-southeast,3.1
2022/05/06,06:00,1.4,south-southeast,2.8
2022/05/06,06:10,1.4,south,2.5
2022/05/06,06:20,1.4,south,2.8
2022/05/06,06:30,1.5,south,3.9
2022/05/06,06:40,1.4,south,4.4
2022/05/06,06:50,1.4,south,3.5
2022/05/06,07:00,1.4,south,2.8
2022/05/06,07:10,1.5,south,2.3
2022/05/06,07:20,1.4,south-southwest,1.5
2022/05/06,07:30,1.5,south,2.0
2022/05/06,07:40,1.5,south-southwest,1.4
2022/05/06,07:50,1.5,southwest,0.9
2022/05/06,08:00,1.4,south-southeast,2.0
2022/05/06,08:10,1.4,south-southeast,2.0
2022/05/06,08:20,1.5,south-southeast,2.6
2022/05/06,08:30,1.4,south-southeast,3.9
2022/05/06,08:40,1.5,south,5.5
2022/05/06,08:50,1.4,south-southeast,6.2
2022/05/06,09:00,1.5,south,7.1
2022/05/06,09:10,1.4,south,5.8
2022/05/06,09:20,1.6,south,6.1
2022/05/06,09:30,1.5,south,7.9
2022/05/06,09:40,1.4,south,9.6
2022/05/06,09:50,1.6,south,9.1
2022/05/06,10:00,1.5,south,11.0
2022/05/06,10:10,1.4,south-southeast,12.7
2022/05/06,10:20,1.5,south,11.4
2022/05/06,10:30,1.4,south,12.0
2022/05/06,10:40,1.4,south,11.6
2022/05/06,10:50,1.5,south,10.9
2022/05/06,11:00,1.4,south,10.7
2022/05/06,11:10,1.5,south-southeast,10.9
2022/05/06,11:20,1.5,south,11.0
2022/05/06,11:30,1.4,south-southeast,13.3
2022/05/06,11:40,1.5,south-southeast,15.2
2022/05/06,11:50,1.4,south,14.2
2022/05/06,12:00,1.4,south,13.9
2022/05/06,12:10,1.6,south,15.2
2022/05/06,12:20,1.5,south-southeast,13.3
2022/05/06,12:30,1.4,south-southeast,13.9
2022/05/06,12:40,1.5,south-southeast,14.1
2022/05/06,12:50,1.4,south-southeast,15.2
2022/05/06,13:00,1.5,south-southeast,15.2
2022/05/06,13:10,1.3,south-southeast,16.8
2022/05/06,13:20,1.5,south-southeast,16.0
2022/05/06,13:30,1.4,south,14.4
2022/05/06,13:40,1.4,south-southeast,14.4
2022/05/06,13:50,1.4,south-southeast,12.7
2022/05/06,14:00,1.3,south,13.0
2022/05/06,14:10,1.4,south,10.2
2022/05/06,14:20,1.4,south,10.5
2022/05/06,14:30,1.4,south,12.4
2022/05/06,14:40,1.4,south-southeast,13.2
2022/05/06,14:50,1.4,south,13.3
2022/05/06,15:00,1.4,south,13.3
2022/05/06,15:10,1.5,south-southeast,11.4
2022/05/06,15:20,1.5,south-southeast,13.3
2022/05/06,15:30,1.5,south-southeast,12.2
2022/05/06,15:40,1.5,south,12.2
2022/05/06,15:50,1.4,south,11.0
2022/05/06,16:00,1.4,south,11.6
2022/05/06,16:10,1.4,south,12.5
2022/05/06,16:20,1.4,south,12.1
2022/05/06,16:30,1.5,south,11.8
2022/05/06,16:40,1.5,south,10.7
2022/05/06,16:50,1.5,south,10.4
2022/05/06,17:00,1.4,south,9.9
2022/05/06,17:10,1.4,south,9.7
2022/05/06,17:20,1.5,south,8.3
2022/05/06,17:30,1.4,south,7.9
2022/05/06,17:40,1.4,south-southwest,6.7
2022/05/06,17:50,1.4,south,8.6
2022/05/06,18:00,1.5,south,8.1
2022/05/06,18:10,1.4,south,9.0
2022/05/06,18:20,1.6,south,10.6
2022/05/06,18:30,1.4,south,8.8
2022/05/06,18:40,1.5,south,9.0
2022/05/06,18:50,1.5,south,9.1
2022/05/06,19:00,1.4,south,8.4
2022/05/06,19:10,1.5,south,9.1
2022/05/06,19:20,1.4,south,8.6
2022/05/06,19:30,1.5,south,9.7
2022/05/06,19:40,1.4,south,9.9
2022/05/06,19:50,1.5,south,10.4
2022/05/06,20:00,1.4,south,9.2
2022/05/06,20:10,1.3,south,8.4
2022/05/06,20:20,1.4,south,9.1
2022/05/06,20:30,1.5,south,10.0
2022/05/06,20:40,1.4,south,9.7
2022/05/06,20:50,1.5,south,9.8
2022/05/06,21:00,1.5,south,9.4
2022/05/06,21:10,1.4,south,9.0
2022/05/06,21:20,1.4,south,9.4
2022/05/06,21:30,1.5,south,8.3
2022/05/06,21:40,1.4,south,10.4
2022/05/06,21:50,1.4,south,9.1
2022/05/06,22:00,1.4,south,8.0
2022/05/06,22:10,1.4,south,7.9
2022/05/06,22:20,1.5,south,6.8
2022/05/06,22:30,1.5,south,7.9
2022/05/06,22:40,1.5,south,7.6
2022/05/06,22:50,1.4,south,8.8
2022/05/06,23:00,1.5,south,9.1
2022/05/06,23:10,1.4,south,9.1
2022/05/06,23:20,1.4,south,9.2
2022/05/06,23:30,1.5,south,9.6
2022/05/06,23:40,1.5,south,8.8
2022/05/06,23:50,1.4,south,9.6
